Flag for U.S.A. Weather past 2 weeks in Myrtle Beach, South Carolina, U.S.A.

Now
75 °F

Sunny.


Feels Like: 78 °F
Forecast: 60 / 76 °F
Wind: 8 mph from Northwest

Location: Myrtle Beach Air Force Base

Current Time: Oct 21, 2014 at 1:23:39 PM

Latest Report: Oct 21, 2014 at 12:45 PM


Visibility: 10 mi

Pressure: 29.92 "Hg

Humidity: 47%

Dew point: 54 °F

Location of Myrtle BeachLocation

Historic Weather in Myrtle Beach — Graph

°F

Myrtle Beach temperature yesterday

Maximum temperature yesterday: 73 °F (at 2:45 PM)
Minimum temperature yesterday: 50 °F (at 6:50 AM)
Average temperature yesterday: 60 °F

Past Weeks' High & Low Weather Summary

 TemperatureHumidityPressure
High88 °F (Oct 8, 1:45 PM)94% (Oct 13, 3:55 AM)30.22 "Hg (Oct 13, 3:55 AM)
Low50 °F (Oct 20, 6:50 AM)33% (Oct 6, 11:45 AM)29.76 "Hg (Oct 18, 2:45 PM)
Average69 °F74%30.02 "Hg
* Reported Oct 6 11:45 AM — Oct 21 11:45 AM, Myrtle Beach, Weather by CustomWeather, © 2014

Note: Actual official high and low records may vary slightly from our data, if they occured in-between our weather recording intervals... More about our weather records

Advertising

Myrtle Beach weather history for previous 24 hours

 ConditionsComfort  
Time TempWeatherWind HumidityBarometerVisibility
11:45 AM
Oct 21
73 °FSunny.8 mph50%29.94 "Hg10 mi
11:15 AM72 °FSunny.10 mph53%29.95 "Hg10 mi
10:55 AM72 °FSunny.9 mph53%29.96 "Hg10 mi
10:35 AM70 °FSunny.6 mph60%29.96 "Hg10 mi
10:15 AM70 °FSunny.6 mph60%29.96 "Hg10 mi
9:55 AM68 °FSunny.7 mph64%29.96 "Hg10 mi
9:35 AM66 °FSunny.6 mph73%29.96 "Hg10 mi
9:15 AM64 °FSunny.6 mph78%29.96 "Hg10 mi
8:55 AM63 °FSunny.6 mph83%29.96 "Hg10 mi
8:35 AM61 °FSunny.5 mph88%29.96 "Hg9 mi
8:15 AM57 °FClear.No wind94%29.95 "Hg10 mi
7:55 AM59 °FClear.3 mph82%29.96 "Hg10 mi
7:35 AM59 °FClear.No wind88%29.95 "Hg10 mi
7:15 AM59 °FClear.No wind82%29.95 "Hg10 mi
6:55 AM59 °FClear.5 mph88%29.95 "Hg10 mi
6:35 AM59 °FClear.5 mph82%29.95 "Hg10 mi
6:15 AM59 °FPassing clouds.No wind88%29.94 "Hg10 mi
5:55 AM59 °FPassing clouds.No wind88%29.94 "Hg10 mi
5:35 AM59 °FPassing clouds.3 mph88%29.94 "Hg9 mi
5:15 AM59 °FPassing clouds.No wind82%29.94 "Hg10 mi
4:55 AM59 °FPassing clouds.3 mph88%29.94 "Hg10 mi
4:35 AM59 °FClear.No wind82%29.93 "Hg10 mi
4:15 AM59 °FClear.No wind88%29.94 "Hg10 mi
3:55 AM59 °FClear.No wind88%29.94 "Hg10 mi
3:35 AM59 °FClear.No wind88%29.94 "Hg9 mi
3:15 AM61 °FClear.No wind83%29.94 "Hg10 mi
2:55 AM61 °FClear.No wind83%29.95 "Hg10 mi
2:35 AM61 °FClear.No wind83%29.95 "Hg10 mi
2:15 AM61 °FClear.No wind83%29.97 "Hg10 mi
1:55 AM61 °FClear.3 mph88%29.97 "Hg10 mi
1:35 AM61 °FClear.No wind83%29.98 "Hg10 mi
1:15 AM61 °FClear.5 mph83%29.99 "Hg10 mi
12:55 AM63 °FClear.3 mph77%29.99 "Hg10 mi
12:35 AM64 °FClear.6 mph73%29.99 "Hg10 mi
12:15 AM61 °FClear.5 mph83%30.00 "Hg10 mi
11:55 PM
Oct 20
61 °FClear.3 mph88%30.01 "Hg10 mi
11:15 PM61 °FClear.3 mph88%30.01 "Hg10 mi
10:55 PM61 °FClear.3 mph88%30.02 "Hg10 mi
9:45 PM63 °FClear.No wind83%30.01 "Hg10 mi
8:45 PM64 °FClear.No wind78%30.01 "Hg10 mi
6:47 PM70 °FPassing clouds.7 mph64%30.00 "Hg10 mi
5:45 PM72 °FPassing clouds.9 mph61%30.00 "Hg10 mi
4:45 PM73 °FPassing clouds.9 mph57%30.02 "Hg10 mi
3:45 PM73 °FPassing clouds.9 mph57%30.03 "Hg10 mi
2:45 PM73 °FSunny.9 mph57%30.06 "Hg10 mi
1:45 PM72 °FSunny.12 mph57%30.08 "Hg10 mi
Weather by CustomWeather, © 2014

See weather overviewHow to use our weather pages